Location: Banska Bystrica
(0.0000°N, 19.1500°E)
Time: 01:05:34
(UTC+01:00)

MONITOR-E - Pass Details

Date: 19 February 2019
Orbit: 363 x 368 km, 97.1° (Epoch: 18 March)

Event Time Altitude Azimuth Distance (km) Brightness Sun altitude
Rises 18:48:16 0° 166° (SSE) 2,227 7.9 -12.5°
Reaches altitude 10° 18:50:13 10° 164° (SSE) 1,375 6.8 -13.0°
Maximum altitude 18:53:07 70° 80° (E) 399 3.9 -13.7°
Drops below altitude 10° 18:56:01 10° 355° (N) 1,366 6.8 -14.4°
Sets 18:57:58 0° 353° (N) 2,211 7.9 -14.9°
